[Date Prev][Date Next][Thread Prev][Thread Next] - [Date Index][Thread Index][Author Index]

2 Line ISS Keps 11-13



ISS
1 25544U 98067A   02317.19087507  .00048307  00000-0  61360-3 0  3681
2 25544  51.6408  24.8474 0014065 132.4975 270.4234 15.58798911227212


----
Via the sarex mailing list at AMSAT.ORG courtesy of AMSAT-NA.
To unsubscribe, send "unsubscribe sarex" to Majordomo@amsat.org



AMSAT Top AMSAT Home